Location: Unspecified
(48.5539°N, 71.6350°W)
Time: 18:13:49
(UTC-05:00)

ISS - Pass Details

Date: 27 January 2019
Orbit: 403 x 411 km, 51.6° (Epoch: 18 February)

Event Time Altitude Azimuth Distance (km) Brightness Sun altitude
Rises 23:24:01 0° 284° (WNW) 2,347 - -58.9°
Reaches altitude 10° 23:26:40 10° 262° (W) 1,482 - -59.0°
Maximum altitude 23:28:46 16° 223° (SW) 1,176 - -59.1°
Drops below altitude 10° 23:30:52 10° 183° (S) 1,476 - -59.2°
Sets 23:33:30 0° 161° (SSE) 2,333 - -59.3°
